Temperature
10 10 10 9 9 9 9 8 8 8 8 8 8 8 7 7 7 7 7 6 6 6 6 6 6 6 5 5 5 5 5 5 5 5 4 4 4 3
9 9 9 9 9 8 8 8 7 7 7 7 7 7 7 6 6 6 6 6 5 5 5 5 5 5 5 5 5 5 4 4 4 4 4 3 3 3
8 8 8 8 8 8 7 7 7 7 7 6 6 6 6 5 5 5 5 5 5 5 5 4 4 4 4 4 4 4 4 4 3 3 3 3 2 2
8 8 8 7 7 7 7 7 6 6 6 6 5 5 5 5 4 4 4 4 4 4 4 4 3 3 3 3 3 3 3 3 3 2 2 2 2 2
7 7 7 7 6 6 6 6 6 6 5 5 5 4 4 4 4 4 3 3 3 3 3 3 3 3 3 3 2 2 2 2 2 2 2 1 1 1
6 6 6 6 6 5 5 5 5 5 5 4 4 4 4 3 3 3 3 3 3 3 2 2 2 2 2 2 2 2 2 1 1 1 1 1 1 1
5 5 5 5 5 5 4 4 4 4 4 4 3 3 3 3 2 2 2 2 2 2 2 2 2 2 1 1 1 1 1 1 1 0 0 0 0 -0
4 4 4 4 4 4 4 4 4 3 3 3 3 2 2 2 2 1 1 1 1 1 1 1 1 1 1 1 1 0 0 0 0 -0 -0 -0 -1 -1
4 3 3 3 3 3 3 3 3 2 2 2 2 2 1 1 1 1 0 0 0 0 0 0 0 0 -0 -0 -0 -0 -0 -1 -1 -1 -1 -1 -1 -1
3 3 2 2 2 2 2 2 2 2 1 1 1 1 1 0 0 -0 -0 -0 -0 -1 -1 -1 -1 -1 -1 -1 -1 -1 -1 -1 -1 -1 -1 -2 -2 -2
2 2 2 2 1 1 1 1 1 1 1 1 1 0 0 -0 -0 -1 -1 -1 -1 -1 -2 -2 -2 -1 -1 -1 -1 -1 -2 -2 -2 -2 -2 -2 -2 -3
1 1 1 1 1 1 1 1 1 0 0 0 0 -0 -0 -1 -1 -1 -1 -2 -2 -2 -2 -3 -3 -3 -2 -2 -2 -2 -2 -2 -3 -3 -3 -3 -3 -3
1 1 1 0 0 0 0 0 -0 -0 -0 -0 -0 -1 -1 -1 -2 -2 -2 -2 -3 -3 -3 -4 -3 -3 -4 -3 -2 -2 -3 -3 -3 -3 -3 -3 -3 -3
0 0 -0 -0 -0 -0 -0 -0 -1 -1 -1 -1 -1 -1 -1 -2 -2 -2 -3 -3 -3 -3 -3 -4 -4 -4 -4 -4 -3 -3 -3 -3 -3 -3 -3 -4 -4 -4
-0 -0 -1 -1 -1 -1 -1 -1 -1 -1 -1 -1 -2 -2 -2 -2 -3 -3 -3 -3 -3 -3 -4 -4 -4 -4 -5 -5 -5 -4 -3 -3 -3 -4 -4 -4 -4 -4
-1 -1 -1 -1 -1 -1 -1 -1 -1 -2 -2 -2 -2 -3 -3 -3 -3 -3 -3 -3 -3 -3 -4 -4 -5 -5 -5 -5 -5 -4 -4 -4 -4 -4 -5 -4 -4 -4
-1 -1 -1 -1 -1 -1 -1 -2 -2 -2 -2 -2 -3 -3 -3 -3 -3 -4 -4 -4 -4 -4 -4 -4 -5 -5 -6 -6 -5 -5 -5 -5 -5 -5 -5 -5 -4 -5
-2 -1 -1 -1 -1 -2 -2 -2 -2 -2 -2 -3 -3 -3 -3 -4 -4 -4 -4 -4 -4 -4 -5 -5 -6 -6 -6 -5 -5 -5 -5 -5 -5 -6 -6 -6 -5 -5
-2 -2 -1 -2 -2 -2 -2 -2 -2 -3 -3 -3 -3 -4 -4 -4 -4 -4 -4 -5 -5 -5 -5 -6 -6 -7 -8 -7 -6 -6 -6 -6 -6 -6 -7 -7 -6 -5
-2 -2 -2 -2 -2 -2 -2 -2 -3 -3 -3 -3 -3 -4 -4 -4 -4 -5 -5 -5 -6 -6 -6 -6 -6 -7 -8 -8 -7 -6 -6 -7 -7 -7 -7 -7 -7 -6
-2 -2 -2 -2 -2 -2 -2 -3 -3 -3 -3 -4 -4 -4 -4 -5 -5 -5 -5 -6 -6 -6 -6 -6 -6 -7 -8 -9 -8 -6 -5 -6 -7 -8 -8 -8 -7 -7
-2 -2 -2 -2 -2 -3 -3 -3 -3 -3 -4 -4 -4 -4 -5 -5 -5 -5 -6 -6 -6 -6 -6 -6 -7 -7 -8 -9 -8 -7 -6 -6 -7 -7 -8 -8 -9 -8
-2 -2 -2 -2 -2 -3 -3 -3 -4 -4 -4 -4 -4 -5 -5 -5 -5 -6 -6 -6 -6 -7 -7 -7 -7 -8 -8 -8 -8 -8 -7 -7 -7 -7 -6 -7 -7 -8
Wind_Speed
3 2 2 1 1 1 2 2 3 4 4 3 2 2 3 4 4 3 4 4 3 3 4 5 5 5 4 3 3 3 2 2 2 3 4 5 6 7
1 2 2 1 1 1 1 1 2 3 3 1 2 1 2 3 3 4 4 4 4 4 4 4 4 3 3 2 2 2 2 2 2 3 4 5 6 7
1 1 1 1 1 0 1 1 1 1 3 1 2 1 2 1 2 3 3 3 3 4 4 4 3 2 2 2 2 2 2 2 2 2 3 4 5 6
1 2 1 1 1 0 0 1 1 1 2 2 1 1 1 1 1 1 2 2 2 3 4 3 3 2 2 2 2 2 2 3 3 4 4 5 6 6
2 2 1 2 1 1 1 0 0 0 1 2 2 1 1 1 1 1 1 1 2 2 3 3 3 3 3 3 3 3 3 3 4 4 5 5 6 7
3 3 2 2 1 1 1 1 1 1 1 2 2 1 1 1 1 0 1 1 2 1 2 4 4 5 4 4 3 3 3 3 4 5 5 6 7 8
3 3 4 4 4 3 2 2 1 1 2 2 1 1 1 1 1 0 0 1 1 1 2 3 4 4 5 4 4 3 4 4 5 6 7 7 8 8
3 3 3 3 4 4 4 4 3 2 2 2 1 1 1 1 1 1 1 1 2 2 2 3 2 2 4 4 4 4 5 6 7 7 7 8 8 9
3 2 2 3 3 2 4 5 5 5 3 2 2 1 1 1 2 1 0 0 2 2 1 3 2 2 3 3 5 6 6 6 7 7 8 8 9 10
2 2 2 2 2 2 3 3 2 2 3 2 2 1 2 2 2 2 2 1 2 2 1 2 2 2 3 6 6 5 5 6 7 7 8 9 10 11
2 2 2 2 3 3 2 2 1 1 3 3 3 2 1 1 1 2 1 1 1 2 0 1 2 2 3 3 4 3 4 6 7 8 9 10 12 12
1 1 2 2 3 3 2 2 1 1 1 1 1 1 0 1 0 2 3 2 1 2 1 1 1 2 3 3 2 5 6 8 10 11 12 13 13 11
2 2 2 4 4 3 2 2 2 1 1 1 1 1 0 0 0 1 2 2 3 3 1 1 0 1 2 3 3 3 5 6 8 10 13 14 14 12
2 2 3 4 4 4 3 3 3 1 0 1 1 1 1 1 1 1 1 2 4 5 5 2 2 3 3 4 5 4 4 6 7 7 10 13 13 14
3 4 4 5 4 3 4 5 3 1 2 2 3 3 2 2 1 0 2 4 6 8 9 9 5 4 4 5 5 5 5 5 6 5 5 6 7 8
3 4 5 5 4 5 5 4 3 3 3 3 3 2 2 1 2 2 2 2 3 4 6 9 10 7 7 8 8 9 7 5 4 5 6 7 10 11
4 2 2 2 3 3 3 3 3 3 4 3 3 3 3 3 3 3 3 3 4 5 5 3 7 9 8 7 8 10 9 9 9 8 7 9 8 9
6 3 4 4 5 5 5 4 4 5 4 4 4 4 4 4 4 4 4 4 6 6 6 4 3 4 4 7 13 11 9 9 8 7 7 9 11 8
6 5 5 5 5 5 5 5 5 5 5 5 5 5 5 5 5 5 5 6 7 7 6 5 4 5 7 8 6 12 8 6 6 7 7 8 11 9
5 6 6 6 6 6 6 5 5 5 5 5 5 5 5 5 6 6 6 7 7 7 7 6 6 7 8 8 7 6 10 8 7 9 9 9 10 14
7 7 7 6 6 6 6 6 6 6 6 6 6 6 6 6 7 7 7 11 10 8 9 8 7 10 6 5 8 8 7 13 14 10 8 9 11 11
7 7 7 7 7 7 6 6 6 6 7 7 7 7 7 7 8 9 8 8 8 8 9 8 6 6 6 9 11 12 12 10 13 20 21 18 10 6
7 7 7 7 7 7 7 7 8 7 7 7 7 7 7 8 8 8 9 9 9 9 9 8 6 6 8 9 11 11 13 13 10 10 11 18 23 27
Wind_Direction
224 222 230 253 253 247 240 226 232 250 238 184 145 80 74 72 49 53 64 49 34 33 34 35 42 45 43 35 25 14 357 332 280 262 254 257 258 262
210 198 215 226 234 254 246 244 227 234 236 145 119 103 88 78 44 47 59 53 44 38 35 34 36 43 38 21 7 1 341 323 297 273 263 262 268 270
174 173 183 147 169 206 218 219 230 221 228 149 98 104 109 93 47 46 50 53 44 32 25 18 22 29 17 5 15 15 1 344 329 316 304 295 290 284
164 155 154 125 125 94 162 186 209 214 193 194 143 126 105 103 71 46 34 39 41 26 15 11 7 357 344 327 319 311 306 303 298 296 296 295 291 289
91 103 103 117 121 104 110 112 256 220 127 152 139 113 104 111 58 11 10 11 3 354 352 351 336 327 318 309 299 292 285 280 281 283 286 290 292 290
74 75 71 89 110 132 117 84 60 83 95 112 119 121 121 125 112 57 328 323 320 341 355 339 327 318 308 303 298 287 284 285 285 284 283 283 282 283
86 80 73 75 72 76 85 75 79 102 110 117 128 114 136 127 203 185 345 322 317 30 2 326 314 305 300 292 288 275 281 286 286 284 284 282 282 281
122 110 102 84 83 78 77 76 82 108 133 138 153 170 190 172 125 97 68 40 304 335 5 309 291 282 278 270 273 282 290 289 286 285 283 282 281 281
132 127 119 111 91 81 75 69 62 62 79 133 150 182 164 147 122 97 93 230 241 260 351 295 302 292 287 289 296 293 292 290 287 285 285 284 283 283
126 131 133 127 115 103 90 71 59 45 53 66 106 98 96 101 132 161 185 275 288 276 199 254 298 302 311 309 296 285 288 292 292 289 287 286 286 285
130 126 129 144 161 143 116 103 71 40 65 81 87 87 89 101 113 98 90 50 310 292 330 219 306 323 310 301 298 288 299 300 298 295 294 293 292 289
160 170 181 176 181 173 144 152 167 187 97 55 25 2 334 204 175 154 168 184 229 273 306 42 343 0 324 304 311 309 300 294 293 293 296 298 297 293
189 200 202 196 201 203 197 188 213 195 174 206 247 244 202 158 132 156 167 177 206 239 243 82 269 280 256 292 297 283 281 287 292 293 295 296 293 286
196 199 201 206 218 219 222 225 226 225 188 222 236 235 227 221 202 164 230 247 242 247 255 233 229 235 263 282 282 289 293 287 286 288 289 291 290 287
196 205 212 220 232 231 235 237 231 213 214 231 241 243 222 196 172 224 279 276 275 268 263 251 234 243 243 257 271 284 298 289 276 273 281 280 277 278
211 219 227 235 232 230 240 241 218 212 215 224 234 229 197 195 219 224 246 269 282 279 256 246 237 232 250 254 263 272 272 274 286 282 284 281 274 267
188 190 205 216 220 224 225 223 217 223 235 224 225 228 228 228 237 230 234 246 255 275 285 256 242 239 241 252 264 264 267 268 268 274 279 281 274 260
203 207 218 222 224 226 227 227 222 223 222 221 224 227 232 237 247 244 240 245 258 265 269 270 263 270 264 253 239 253 258 262 265 263 261 276 282 271
218 217 224 227 229 228 227 225 227 223 214 217 224 228 233 240 245 249 248 252 258 262 262 253 245 250 270 281 263 228 234 254 264 268 264 264 275 279
219 223 228 229 228 228 229 230 231 226 220 223 226 229 229 235 243 247 247 249 256 261 263 251 238 237 248 264 275 268 239 245 258 268 273 272 273 279
222 226 228 228 229 228 229 227 227 229 227 225 230 230 230 233 241 245 248 254 256 257 259 258 247 253 256 258 269 271 259 249 252 257 265 274 281 282
225 227 228 228 227 228 228 228 231 232 231 232 234 234 231 232 240 244 246 250 252 253 259 264 253 248 241 252 263 275 283 278 267 267 263 259 262 265
230 229 229 227 227 226 227 229 231 235 234 234 236 236 234 237 240 243 246 249 253 256 260 266 262 251 251 255 263 270 275 280 282 278 269 263 261 262
Height
1520 1521 1521 1521 1522 1522 1522 1522 1523 1520 1520 1520 1520 1520 1520 1519 1519 1518 1517 1516 1515 1515 1514 1514 1513 1514 1514 1514 1514 1515 1515 1515 1515 1516 1516 1517 1518 1518
1515 1515 1515 1515 1515 1516 1516 1516 1516 1516 1515 1514 1515 1515 1515 1514 1514 1513 1512 1511 1511 1510 1509 1509 1509 1509 1509 1509 1509 1510 1510 1510 1510 1511 1511 1512 1512 1513
1510 1510 1510 1510 1510 1510 1510 1510 1511 1511 1510 1510 1510 1510 1509 1509 1509 1508 1507 1507 1506 1505 1505 1504 1504 1504 1504 1504 1505 1505 1505 1505 1505 1505 1506 1506 1507 1507
1505 1505 1505 1505 1505 1505 1505 1505 1505 1505 1506 1505 1505 1505 1505 1504 1504 1504 1503 1502 1502 1501 1501 1500 1500 1500 1500 1500 1500 1500 1500 1500 1500 1501 1501 1501 1501 1502
1500 1500 1500 1500 1500 1500 1500 1500 1500 1500 1500 1500 1500 1500 1500 1500 1500 1499 1498 1498 1498 1497 1497 1496 1496 1496 1496 1496 1496 1496 1496 1496 1496 1496 1496 1496 1496 1497
1496 1496 1496 1496 1496 1496 1495 1495 1496 1496 1496 1496 1496 1495 1495 1495 1495 1495 1494 1494 1494 1494 1493 1493 1493 1492 1492 1492 1491 1491 1491 1491 1491 1491 1491 1491 1491 1492
1492 1492 1492 1492 1492 1491 1492 1491 1492 1491 1492 1492 1492 1491 1491 1491 1491 1491 1490 1490 1490 1490 1489 1489 1489 1489 1488 1488 1488 1487 1487 1487 1487 1487 1486 1486 1486 1487
1488 1488 1488 1488 1488 1488 1488 1488 1488 1488 1488 1488 1488 1488 1488 1488 1488 1487 1487 1487 1486 1487 1486 1486 1485 1485 1484 1484 1484 1483 1483 1482 1482 1482 1482 1482 1481 1481
1484 1484 1484 1484 1484 1485 1484 1484 1484 1484 1484 1485 1484 1484 1484 1484 1484 1484 1484 1484 1483 1483 1482 1481 1482 1481 1480 1480 1480 1479 1479 1478 1478 1477 1477 1477 1476 1476
1481 1481 1481 1481 1481 1481 1481 1481 1481 1481 1481 1481 1481 1481 1482 1481 1481 1481 1481 1480 1480 1480 1479 1478 1477 1477 1477 1476 1476 1475 1475 1474 1474 1473 1472 1472 1471 1471
1478 1478 1478 1478 1478 1478 1478 1478 1479 1479 1479 1478 1478 1478 1478 1478 1478 1478 1478 1477 1476 1476 1476 1475 1473 1473 1472 1472 1472 1471 1471 1470 1469 1468 1468 1467 1466 1465
1475 1475 1476 1476 1476 1476 1476 1476 1476 1476 1476 1476 1476 1476 1475 1475 1475 1475 1474 1474 1473 1472 1472 1472 1470 1469 1468 1467 1468 1467 1467 1466 1465 1464 1463 1462 1461 1460
1472 1473 1473 1473 1473 1473 1473 1473 1473 1473 1473 1473 1473 1472 1472 1472 1472 1471 1471 1471 1470 1469 1469 1468 1467 1466 1465 1463 1462 1462 1462 1460 1459 1458 1457 1456 1455 1454
1469 1470 1470 1470 1470 1470 1470 1470 1470 1470 1470 1470 1470 1469 1469 1469 1469 1468 1468 1467 1467 1466 1466 1465 1463 1462 1460 1458 1456 1456 1456 1455 1454 1452 1451 1450 1450 1449
1466 1466 1467 1467 1467 1467 1467 1467 1467 1467 1467 1467 1466 1466 1466 1465 1465 1465 1464 1463 1463 1462 1461 1460 1459 1458 1456 1454 1451 1450 1449 1448 1448 1446 1445 1444 1443 1442
1463 1463 1463 1464 1464 1464 1464 1464 1464 1464 1464 1463 1463 1463 1462 1462 1461 1460 1459 1459 1458 1458 1457 1456 1454 1453 1451 1449 1447 1444 1444 1442 1441 1440 1438 1437 1436 1435
1459 1460 1460 1460 1460 1460 1461 1461 1461 1461 1460 1460 1459 1458 1458 1457 1457 1456 1455 1454 1453 1451 1451 1451 1449 1447 1445 1444 1441 1439 1438 1437 1436 1434 1432 1429 1429 1428
1455 1455 1456 1456 1456 1456 1456 1457 1457 1456 1456 1456 1455 1454 1453 1453 1452 1451 1450 1449 1447 1446 1445 1444 1443 1441 1439 1437 1437 1433 1432 1431 1430 1428 1426 1423 1421 1421
1451 1451 1451 1452 1452 1452 1452 1452 1452 1452 1451 1451 1450 1449 1449 1448 1447 1446 1445 1443 1442 1440 1439 1438 1437 1435 1433 1430 1429 1429 1426 1425 1423 1421 1420 1417 1414 1413
1446 1447 1447 1447 1447 1447 1447 1447 1447 1447 1446 1446 1445 1444 1443 1442 1441 1440 1439 1437 1436 1434 1433 1432 1431 1430 1428 1426 1422 1420 1421 1419 1417 1414 1413 1410 1407 1406
1442 1442 1442 1442 1442 1442 1442 1442 1441 1441 1440 1440 1439 1438 1437 1436 1435 1434 1433 1431 1430 1428 1426 1425 1425 1425 1422 1420 1416 1412 1413 1413 1411 1408 1405 1403 1399 1397
1437 1437 1436 1436 1436 1436 1436 1436 1435 1435 1434 1433 1433 1432 1431 1430 1428 1427 1426 1425 1423 1422 1420 1419 1418 1417 1415 1413 1409 1406 1405 1404 1403 1402 1399 1397 1395 1390
1431 1431 1431 1430 1430 1430 1429 1429 1428 1428 1427 1426 1426 1425 1424 1423 1421 1420 1419 1418 1416 1415 1413 1412 1411 1409 1407 1405 1403 1399 1397 1395 1394 1392 1390 1390 1388 1385